Location: Agadir Mansour Mhndou
(31.2424°N, 8.7730°W)
Time: 18:56:18
(UTC+00:00)

YAOGAN 1 - Pass Details

Date: 16 October 2021
Orbit: 618 x 620 km, 97.9° (Epoch: 07 December)

Event Time Altitude Azimuth Distance (km) Brightness Sun altitude
Rises 19:35:30 0° 170° (S) 2,878 5.9 -20.7°
Reaches altitude 10° 19:37:40 10° 171° (S) 1,976 5.0 -21.2°
Maximum altitude 19:41:58 79° 258° (WSW) 634 2.6 -22.1°
Drops below altitude 10° 19:46:18 10° 345° (NNW) 1,989 5.3 -23.0°
Sets 19:48:30 0° 347° (NNW) 2,899 6.2 -23.5°
